Location: La Tine
(46.4708°N, 7.0525°E)
Time: 16:54:35
(UTC+00:00)

Cosmos 1939 Rocket - Pass Details

Date: 18 September 2020
Orbit: 530 x 586 km, 97.4° (Epoch: 29 October)

Event Time Altitude Azimuth Distance (km) Brightness Sun altitude
Rises 18:06:24 0° 180° (S) 2,780 6.3 -5.9°
Reaches altitude 10° 18:08:35 10° 187° (S) 1,892 5.5 -6.3°
Maximum altitude 18:12:34 47° 261° (W) 782 4.2 -7.0°
Drops below altitude 10° 18:16:36 10° 336° (NNW) 1,920 6.1 -7.6°
Sets 18:18:50 0° 343° (NNW) 2,826 6.9 -8.0°
